Home   Weather   Market Harborough   Past weeks

Flag for United Kingdom Past Weather in Market Harborough, England, United Kingdom — Yesterday and Last 2 Weeks

Now
36 °F

Smoke.


Feels Like: 30 °F
Forecast: N/A
Wind: 7 mph from South

Location: Church Lawford

Current Time: Jan 22, 2017 at 2:43:03 pm

Latest Report: Jan 22, 2017 at 1:00 pm


Visibility: 4 mi

Pressure: 30.32 "Hg

Humidity: 86%

Dew Point: 32 °F

Location of Market HarboroughLocation

Past Weather in Market Harborough — Graph

°F

Market Harborough Temperature Yesterday

Maximum temperature yesterday: 38 °F (at 1:00 pm)
Minimum temperature yesterday: 28 °F (at 3:00 am)
Average temperature yesterday: 33 °F

High & Low Weather Summary for the Past Weeks

 TemperatureHumidityPressure
High51 °F (Jan 11, 7:00 am)100% (Jan 7, 1:00 pm)30.67 "Hg (Jan 7, 1:00 pm)
Low26 °F (Jan 22, 7:00 am)58% (Jan 11, 4:00 pm)29.41 "Hg (Jan 12, 5:00 pm)
Average40 °F92%30.25 "Hg
* Reported Jan 7 1:00 pm — Jan 22 1:00 pm, Market Harborough, Weather by CustomWeather, © 2017

Note: Actual official high and low records may vary slightly from our data, if they occured in-between our weather recording intervals... More about our weather records

Advertising

Market Harborough Weather History for the Previous 24 Hours

Scroll right to see more
 ConditionsComfort  
Time TempWeatherWind HumidityBarometerVisibility
1:00 pm
Sun, Jan 22
36 °FSmoke.7 mph86%30.32 "Hg4 mi
12:00 pm37 °FSmoke.5 mph82%30.32 "Hg4 mi
11:00 am35 °FSmoke.3 mph84%30.32 "Hg4 mi
10:00 am32 °FSmoke.3 mph90%30.32 "Hg4 mi
9:00 am28 °FFog.3 mph97%30.31 "Hg3 mi
8:00 am27 °FFog.No wind96%30.29 "Hg3 mi
7:00 am26 °FSmoke.1 mph91%30.29 "Hg3 mi
6:00 am28 °FSmoke.3 mph90%30.29 "Hg4 mi
5:00 am29 °FSmoke.5 mph91%30.29 "Hg5 mi
4:00 am27 °FSmoke.3 mph91%30.29 "Hg5 mi
3:00 am28 °FSmoke.3 mph91%30.29 "Hg5 mi
2:00 am26 °FFog.3 mph96%30.30 "Hg3 mi
1:00 am27 °FFog.2 mph95%30.29 "Hg3 mi
12:00 am27 °FFog.2 mph96%30.29 "Hg3 mi
11:00 pm
Sat, Jan 21
29 °FChilly.1 mph96%30.29 "Hg3 mi
10:00 pm30 °FFog.2 mph98%30.29 "Hg1 mi
9:00 pm33 °FFog.2 mph96%30.29 "Hg2 mi
7:00 pm35 °FFog.5 mph95%30.29 "Hg4 mi
6:00 pm35 °FSmoke.5 mph94%30.29 "Hg6 mi
5:00 pm37 °FChilly.6 mph91%30.29 "Hg7 mi
4:00 pm38 °FChilly.5 mph90%30.30 "Hg8 mi
3:00 pm38 °FChilly.7 mph87%30.30 "Hg15 mi
2:00 pm38 °FChilly.9 mph86%30.32 "Hg12 mi
Weather by CustomWeather, © 2017

See weather overviewHow to use our weather pages